Location: Pine Mountain Observatory
(43.7910°N, 120.9377°W)
Time: 11:38:08
(UTC-07:00)

Explorer 11/Cluster Stage 4 - Pass Details

Date: 04 June 2019
Orbit: 467 x 1260 km, 28.8° (Epoch: 17 June)

Event Time Altitude Azimuth Distance (km) Brightness Sun altitude
Rises 23:09:41 0° 232° (SW) 4,164 10.2 -18.8°
Reaches altitude 10° 23:13:12 10° 220° (SW) 3,224 9.5 -19.1°
Enters shadow 23:17:40 22° 189° (S) 2,408 8.6 -19.5°
Maximum altitude 23:19:25 24° 171° (S) 2,309 - -19.6°
Drops below altitude 10° 23:25:25 10° 121° (ESE) 3,094 - -20.1°
Sets 23:28:43 0° 108° (ESE) 3,962 - -20.3°
